Location: Arboucave
(43.6130°N, 0.4343°W)
Time: 00:34:56
(UTC+00:00)

Cosmos 468 Rocket - Pass Details

Date: 17 November 2025
Orbit: 740 x 774 km, 74.0° (Epoch: 11 December)

Event Time Altitude Azimuth Distance (km) Brightness Sun altitude
Rises 18:21:43 0° 338° (NNW) 3,231 7.4 -19.3°
Reaches altitude 10° 18:24:07 10° 337° (NNW) 2,296 6.6 -19.7°
Maximum altitude 18:29:19 79° 252° (WSW) 771 4.0 -20.7°
Drops below altitude 10° 18:34:26 10° 166° (SSE) 2,258 6.3 -21.6°
Sets 18:36:46 0° 165° (SSE) 3,173 7.1 -22.0°
